TimeCST,TemperatureF,Dew PointF,Humidity,Sea Level PressureIn,VisibilityMPH,Wind Direction,Wind SpeedMPH,Gust SpeedMPH,PrecipitationIn,Events,Conditions,WindDirDegrees,DateUTC
12:16 AM,46.4,33.8,62,29.99,10.0,SSE,8.1,-,N/A,,Scattered Clouds,160,2012-11-19 06:16:00
12:36 AM,46.4,33.8,62,29.99,10.0,SSE,9.2,-,N/A,,Scattered Clouds,160,2012-11-19 06:36:00
12:56 AM,46.4,33.8,62,29.99,10.0,SSE,8.1,-,N/A,,Clear,160,2012-11-19 06:56:00
1:16 AM,46.4,33.8,62,29.98,10.0,SSE,8.1,-,N/A,,Clear,150,2012-11-19 07:16:00
1:36 AM,44.6,33.8,66,29.98,10.0,SSE,8.1,-,N/A,,Clear,160,2012-11-19 07:36:00
1:56 AM,44.6,33.8,66,29.98,10.0,SSE,8.1,-,N/A,,Clear,160,2012-11-19 07:56:00
2:16 AM,44.6,33.8,66,29.98,10.0,SSE,6.9,-,N/A,,Clear,160,2012-11-19 08:16:00
2:36 AM,44.6,33.8,66,29.98,10.0,SSE,6.9,-,N/A,,Clear,160,2012-11-19 08:36:00
2:56 AM,44.6,33.8,66,29.98,10.0,SSE,10.4,-,N/A,,Clear,160,2012-11-19 08:56:00
3:16 AM,44.6,33.8,66,29.97,10.0,SSE,9.2,-,N/A,,Clear,160,2012-11-19 09:16:00
3:36 AM,44.6,33.8,66,29.98,10.0,SSE,8.1,-,N/A,,Clear,160,2012-11-19 09:36:00
3:56 AM,44.6,33.8,66,29.97,10.0,South,8.1,-,N/A,,Clear,170,2012-11-19 09:56:00
4:16 AM,44.6,33.8,66,29.97,10.0,South,5.8,-,N/A,,Clear,170,2012-11-19 10:16:00
4:36 AM,42.8,33.8,70,29.97,10.0,SSE,9.2,-,N/A,,Clear,160,2012-11-19 10:36:00
4:56 AM,44.6,33.8,66,29.97,10.0,SSE,5.8,-,N/A,,Clear,160,2012-11-19 10:56:00
5:16 AM,42.8,33.8,70,29.97,10.0,SSE,6.9,-,N/A,,Clear,150,2012-11-19 11:16:00
5:36 AM,42.8,33.8,70,29.97,10.0,Calm,Calm,-,N/A,,Clear,0,2012-11-19 11:36:00
5:56 AM,41.0,33.8,76,29.97,10.0,Calm,Calm,-,N/A,,Clear,0,2012-11-19 11:56:00
6:16 AM,39.2,33.8,81,29.97,10.0,Calm,Calm,-,N/A,,Clear,0,2012-11-19 12:16:00
6:36 AM,39.2,33.8,81,29.97,10.0,SSE,4.6,-,N/A,,Clear,150,2012-11-19 12:36:00
6:56 AM,41.0,33.8,76,29.96,10.0,SSE,4.6,-,N/A,,Clear,160,2012-11-19 12:56:00
7:36 AM,41.0,33.8,76,29.97,10.0,SSE,5.8,-,N/A,,Clear,150,2012-11-19 13:36:00
7:56 AM,42.8,33.8,70,29.97,10.0,SSE,4.6,-,N/A,,Clear,150,2012-11-19 13:56:00
8:16 AM,42.8,33.8,70,29.99,10.0,Calm,Calm,-,N/A,Thunderstorm,Scattered Clouds,0,2012-11-19 14:16:00
8:36 AM,44.6,35.6,71,29.99,10.0,Calm,Calm,-,N/A,,Scattered Clouds,0,2012-11-19 14:36:00
8:56 AM,44.6,35.6,71,29.98,10.0,SSE,4.6,-,N/A,,Mostly Cloudy,150,2012-11-19 14:56:00
9:16 AM,44.6,35.6,71,29.98,10.0,SSE,4.6,-,N/A,,Mostly Cloudy,160,2012-11-19 15:16:00
9:36 AM,46.4,35.6,66,29.99,10.0,SSE,3.5,-,N/A,,Mostly Cloudy,160,2012-11-19 15:36:00
9:56 AM,46.4,35.6,66,29.99,10.0,SSW,4.6,-,N/A,,Scattered Clouds,200,2012-11-19 15:56:00
10:16 AM,48.2,35.6,62,30.00,10.0,SW,4.6,-,N/A,,Scattered Clouds,220,2012-11-19 16:16:00
10:36 AM,48.2,35.6,62,29.99,10.0,SSW,6.9,-,N/A,,Clear,200,2012-11-19 16:36:00
10:56 AM,50.0,35.6,58,29.99,10.0,SSW,5.8,-,N/A,,Clear,200,2012-11-19 16:56:00
11:16 AM,50.0,35.6,58,29.98,10.0,SSW,4.6,-,N/A,,Clear,210,2012-11-19 17:16:00
11:36 AM,51.8,37.4,58,29.98,10.0,SW,6.9,-,N/A,,Clear,220,2012-11-19 17:36:00
11:56 AM,53.6,37.4,54,29.98,10.0,SW,6.9,-,N/A,,Clear,230,2012-11-19 17:56:00
12:16 PM,53.6,37.4,54,29.97,10.0,SSW,4.6,-,N/A,,Clear,200,2012-11-19 18:16:00
12:36 PM,55.4,37.4,51,29.97,10.0,SW,6.9,-,N/A,,Clear,220,2012-11-19 18:36:00
12:56 PM,55.4,37.4,51,29.97,10.0,SSW,3.5,-,N/A,,Clear,210,2012-11-19 18:56:00
1:16 PM,55.4,37.4,51,29.96,10.0,WSW,3.5,-,N/A,,Clear,240,2012-11-19 19:16:00
1:36 PM,55.4,37.4,51,29.97,10.0,West,5.8,-,N/A,,Clear,260,2012-11-19 19:36:00
1:56 PM,55.4,37.4,51,29.97,10.0,SW,4.6,-,N/A,,Clear,230,2012-11-19 19:56:00
2:16 PM,55.4,37.4,51,29.97,10.0,SW,5.8,-,N/A,,Clear,220,2012-11-19 20:16:00
2:36 PM,55.4,37.4,51,29.98,10.0,SSW,3.5,-,N/A,,Clear,200,2012-11-19 20:36:00
2:56 PM,55.4,37.4,51,29.98,10.0,WSW,4.6,-,N/A,,Clear,240,2012-11-19 20:56:00
3:16 PM,55.4,37.4,51,29.99,10.0,SW,4.6,-,N/A,,Clear,220,2012-11-19 21:16:00
3:36 PM,53.6,37.4,54,30.00,10.0,West,5.8,-,N/A,,Clear,280,2012-11-19 21:36:00
3:56 PM,53.6,37.4,54,30.01,10.0,West,5.8,-,N/A,,Clear,270,2012-11-19 21:56:00
4:16 PM,51.8,37.4,58,30.01,10.0,West,3.5,-,N/A,,Clear,260,2012-11-19 22:16:00
4:36 PM,48.2,37.4,66,30.01,10.0,Calm,Calm,-,N/A,,Clear,0,2012-11-19 22:36:00
4:56 PM,44.6,35.6,71,30.02,10.0,WNW,5.8,-,N/A,,Clear,300,2012-11-19 22:56:00
5:16 PM,48.2,37.4,66,30.03,10.0,NW,6.9,-,N/A,,Clear,310,2012-11-19 23:16:00
5:36 PM,46.4,35.6,66,30.04,10.0,NW,6.9,-,N/A,,Clear,310,2012-11-19 23:36:00
5:56 PM,44.6,35.6,71,30.04,10.0,NW,5.8,-,N/A,,Clear,310,2012-11-19 23:56:00
6:16 PM,44.6,35.6,71,30.04,10.0,NW,6.9,-,N/A,,Clear,310,2012-11-20 00:16:00
6:36 PM,44.6,35.6,71,30.05,10.0,NW,4.6,-,N/A,,Clear,310,2012-11-20 00:36:00
6:56 PM,42.8,35.6,76,30.05,10.0,NW,8.1,-,N/A,,Clear,320,2012-11-20 00:56:00
7:16 PM,41.0,35.6,81,30.05,10.0,NNW,4.6,-,N/A,,Clear,330,2012-11-20 01:16:00
7:36 PM,39.2,33.8,81,30.05,10.0,WNW,3.5,-,N/A,,Clear,300,2012-11-20 01:36:00
7:56 PM,37.4,33.8,87,30.05,10.0,Calm,Calm,-,N/A,,Clear,0,2012-11-20 01:56:00
8:16 PM,37.4,33.8,87,30.07,10.0,WNW,5.8,-,N/A,,Clear,300,2012-11-20 02:16:00
8:36 PM,37.4,33.8,87,30.07,10.0,WNW,3.5,-,N/A,,Clear,300,2012-11-20 02:36:00
9:16 PM,37.4,33.8,87,30.08,10.0,NW,5.8,-,N/A,,Clear,310,2012-11-20 03:16:00
9:36 PM,37.4,33.8,87,30.09,10.0,NNW,4.6,-,N/A,,Clear,330,2012-11-20 03:36:00
9:56 PM,35.6,33.8,93,30.08,7.0,NW,3.5,-,N/A,,Clear,320,2012-11-20 03:56:00
10:16 PM,35.6,33.8,93,30.09,7.0,WNW,5.8,-,N/A,,Clear,300,2012-11-20 04:16:00
10:36 PM,35.6,33.8,93,30.09,7.0,WNW,4.6,-,N/A,,Clear,300,2012-11-20 04:36:00
10:56 PM,33.8,33.8,100,30.09,5.0,NW,3.5,-,N/A,,Clear,310,2012-11-20 04:56:00
11:16 PM,33.8,32.0,93,30.08,5.0,WNW,3.5,-,N/A,,Clear,300,2012-11-20 05:16:00
11:36 PM,32.0,30.2,93,30.09,5.0,Calm,Calm,-,N/A,,Clear,0,2012-11-20 05:36:00
11:56 PM,30.2,30.2,100,30.10,3.0,Calm,Calm,-,N/A,,Clear,0,2012-11-20 05:56:00